GEFSGL_con_prob3kmehi_234.txt.gz
EHI
20 21 20 18 18 19 17 13 10 7 5 4 2 1 0 0 1 2 3 3 3 3 3 3 2 1 2 2 1 0 0 0 0 0 0 0 0 0 0 0 0 0 0
24 24 23 22 21 20 17 14 11 8 5 4 3 2 1 1 2 3 3 3 3 3 3 3 1 0 1 1 0 0 0 0 0 0 0 0 0 0 0 0 0 0 0
28 28 27 24 22 21 18 14 10 7 5 5 4 3 3 3 3 3 3 3 2 2 2 2 1 1 0 0 0 0 0 0 0 0 0 0 0 0 0 0 0 0 0
30 30 28 25 22 20 18 13 8 6 5 5 4 4 3 3 3 3 3 2 1 1 2 3 3 2 1 0 0 0 0 0 0 0 0 0 0 0 0 0 0 0 0
32 30 28 25 21 18 17 14 9 5 4 4 3 3 3 2 2 3 3 2 2 2 2 3 3 2 1 0 0 0 0 0 0 0 0 0 0 0 0 0 0 0 0
35 32 29 25 21 17 16 14 10 7 5 4 4 3 2 1 1 2 3 3 3 3 3 3 2 1 0 0 0 0 0 0 0 0 0 0 0 0 0 0 0 0 0
36 33 29 25 21 17 15 13 11 9 7 7 5 3 1 0 0 1 2 3 3 3 2 2 1 0 0 0 0 0 0 0 0 0 0 0 0 0 0 0 0 0 0
35 33 30 26 21 18 16 13 11 11 10 9 7 5 2 0 0 1 1 1 2 1 1 1 1 0 0 0 0 0 0 0 0 0 0 0 0 0 0 0 0 0 0
35 34 31 28 23 20 19 16 13 13 12 10 9 7 5 2 1 0 0 0 0 0 0 0 0 0 0 0 0 0 0 0 0 0 0 0 0 0 0 0 0 0 0
37 34 31 29 26 23 21 19 17 15 12 9 7 6 6 4 1 0 0 0 0 0 0 0 0 0 0 0 0 0 0 0 0 0 0 0 0 0 0 0 0 0 0
34 32 29 28 27 24 21 19 19 17 14 9 5 4 5 5 2 1 0 0 1 0 0 0 0 0 0 0 0 0 0 0 0 0 0 0 0 0 0 0 0 0 0
28 27 25 24 24 24 21 18 18 18 15 11 6 5 6 5 3 1 0 0 0 0 0 0 0 0 0 0 0 0 0 0 0 0 0 0 0 0 0 0 0 0 0
23 22 22 22 22 22 21 18 18 18 16 13 10 8 8 7 4 2 1 1 0 0 0 0 0 0 0 0 0 0 0 0 0 0 0 0 0 0 0 0 0 0 0
22 21 20 20 21 21 20 18 17 17 16 13 11 10 9 8 5 3 2 2 1 0 0 0 0 0 0 0 0 0 0 0 0 0 0 0 0 0 0 0 0 0 0
19 19 19 19 19 19 17 14 13 13 12 10 9 8 8 7 5 2 1 2 1 0 0 0 0 0 0 0 0 0 0 0 0 0 0 0 0 0 0 0 0 0 0
15 17 17 17 17 17 14 10 7 5 5 4 4 4 5 4 3 1 0 1 1 0 0 0 0 0 0 0 0 0 0 0 0 0 0 0 0 0 0 0 0 0 0
11 13 15 15 15 15 14 12 8 4 2 1 1 1 2 2 1 0 0 0 0 0 0 0 0 0 0 0 0 0 0 0 0 0 0 0 0 0 0 0 0 0 0
6 8 11 12 13 14 15 15 13 9 5 3 1 1 1 1 0 0 0 0 0 0 0 0 0 0 0 0 0 0 0 0 0 0 0 0 0 0 0 0 0 0 0
3 4 7 10 12 12 14 15 15 11 7 5 4 3 1 1 0 0 0 0 0 0 0 0 0 0 0 0 0 0 0 0 0 0 0 0 0 0 0 0 0 0 0
2 2 4 7 10 11 13 14 14 10 7 6 6 5 4 2 1 1 1 0 0 0 0 0 0 0 0 0 0 0 0 0 0 0 0 0 0 0 0 0 0 0 0
2 2 2 5 8 11 13 14 13 10 8 7 6 6 5 4 3 3 2 1 0 0 0 0 0 0 0 0 0 0 0 0 0 0 0 0 0 0 0 1 1 1 0
3 3 3 4 7 9 11 12 13 11 9 7 6 5 5 5 5 4 4 2 1 0 0 0 0 0 0 0 0 0 0 0 0 0 0 0 1 1 1 1 2 2 1
3 3 3 3 6 8 8 9 10 10 10 8 5 4 5 6 6 6 5 4 2 1 0 0 0 0 0 0 0 0 0 0 0 0 0 1 2 2 2 1 1 2 2
2 2 2 2 3 6 6 7 7 8 8 8 6 5 4 5 6 6 6 4 2 1 0 0 0 0 0 0 0 0 0 0 0 0 0 1 2 3 2 1 0 1 1
1 1 1 0 1 3 5 6 6 7 8 9 8 6 5 4 5 5 4 2 1 0 0 0 0 0 0 0 0 0 0 0 0 0 0 1 2 1 1 0 0 0 0
0 0 0 0 0 2 4 5 6 7 8 9 9 8 6 4 4 4 2 1 0 0 0 0 0 0 0 0 0 0 0 0 0 0 0 1 1 0 0 0 0 0 0

GEFSGL_con_prob3kmehi_240.txt.gz
EHI
43 45 45 45 45 44 40 33 29 29 27 24 23 23 19 16 17 16 12 7 6 6 6 7 9 10 9 8 8 9 8 6 4 3 2 1 2 3 2 1 0 0 0
43 45 46 46 47 45 40 34 33 34 30 25 23 22 19 17 17 16 11 7 5 5 5 6 7 8 7 6 6 8 8 7 6 4 2 1 2 3 3 2 1 0 0
44 45 47 48 48 45 39 35 36 35 30 25 24 23 21 19 17 14 10 8 7 5 4 5 6 6 5 5 5 7 8 8 7 6 2 1 2 3 3 2 1 0 0
44 46 48 50 49 46 42 40 39 35 30 27 27 25 23 20 17 13 10 11 10 7 6 6 6 5 4 5 6 7 7 7 6 5 3 1 1 2 2 1 0 0 0
47 47 49 50 50 50 48 45 42 38 33 31 31 28 24 20 16 13 12 12 12 10 8 7 7 6 5 5 5 5 5 5 4 4 3 1 1 2 1 0 0 0 0
50 50 50 50 51 50 48 44 43 42 37 34 34 31 26 20 14 10 10 11 12 12 10 8 7 6 5 5 4 2 2 3 3 3 2 2 3 3 2 1 0 0 0
53 51 49 49 50 48 45 43 43 43 39 37 36 33 27 20 12 6 5 8 12 14 13 10 9 8 8 7 4 2 1 1 2 2 2 2 3 5 4 1 0 0 0
55 51 49 49 50 47 44 42 41 40 37 35 34 32 29 21 11 4 2 6 12 15 14 12 12 11 10 9 7 4 3 2 2 1 1 2 3 4 4 2 0 0 0
52 51 51 50 49 45 41 39 37 35 33 31 30 29 28 22 10 2 2 7 11 14 14 12 11 10 8 7 7 7 6 4 2 1 1 1 1 2 2 1 0 0 0
47 48 49 48 45 42 39 36 34 32 30 28 26 25 24 19 9 1 2 6 10 12 14 13 9 6 3 3 5 8 8 6 4 2 1 1 1 1 1 1 0 0 0
42 42 43 41 37 37 36 35 33 30 27 26 24 21 18 14 7 2 1 4 8 11 13 14 10 3 0 1 2 4 5 5 4 4 3 2 2 3 3 2 1 1 1
38 38 36 33 31 31 33 32 30 27 23 22 22 18 15 11 7 3 1 1 4 8 10 11 8 3 0 0 0 1 1 2 2 3 4 2 2 4 5 4 4 3 3
36 34 31 28 28 29 31 31 28 24 20 18 18 16 14 12 9 5 2 1 1 3 5 5 3 1 0 0 0 0 0 0 0 2 4 3 2 4 6 6 5 5 5
31 31 29 27 27 29 31 30 26 21 18 16 16 16 15 13 10 6 4 3 2 1 1 1 0 0 0 0 0 0 0 0 0 1 2 3 3 4 6 6 6 6 6
25 26 25 24 25 27 27 24 20 17 14 13 15 16 15 13 9 6 4 4 2 1 0 0 0 1 0 0 0 0 1 1 1 1 2 3 4 5 6 6 5 5 5
20 20 20 20 20 23 23 19 13 10 7 7 9 12 11 9 5 3 2 1 1 1 0 1 1 1 0 0 0 1 2 2 2 2 3 4 5 6 6 6 4 4 4
18 17 17 17 17 19 21 18 13 9 5 3 3 4 4 3 1 1 0 0 0 0 1 2 2 2 1 1 1 1 2 3 4 4 4 4 6 7 7 6 5 4 3
16 15 15 15 15 16 18 18 16 13 10 7 3 1 0 0 0 0 0 1 1 1 1 2 3 3 3 2 2 1 1 3 4 5 5 5 6 6 6 6 4 3 2
13 12 13 14 13 13 14 15 15 14 13 11 9 5 2 1 1 1 1 3 3 3 2 3 3 3 3 3 3 1 1 2 3 4 5 5 5 5 4 4 2 2 2
9 8 8 10 12 12 12 13 12 11 10 11 12 11 6 4 3 3 3 5 6 5 5 4 3 3 3 3 3 2 1 1 3 3 4 5 5 5 4 4 2 2 4
8 7 6 8 10 11 11 10 9 8 7 8 11 12 8 5 5 4 5 6 6 6 6 5 4 3 3 3 3 3 1 1 2 3 3 4 5 5 5 5 4 5 6
8 7 7 7 8 8 8 8 7 6 6 7 8 8 7 6 6 6 6 6 6 6 5 4 3 3 3 3 3 3 2 1 1 2 4 4 5 5 6 6 6 6 6
6 7 7 7 7 6 6 6 5 4 4 5 6 7 7 8 8 8 7 6 5 4 4 3 3 3 3 3 3 3 2 1 0 2 4 5 5 5 5 5 5 5 5
6 6 6 6 6 6 6 5 4 3 3 4 5 7 9 10 10 9 7 4 2 3 3 3 3 3 3 3 3 1 1 0 0 1 2 3 3 4 4 3 3 2 2
6 6 6 6 5 4 4 4 3 3 3 3 4 6 7 8 9 8 5 3 2 3 3 3 3 3 3 3 2 1 0 0 0 0 1 1 1 2 3 2 1 0 0
6 5 4 4 4 4 3 3 3 3 3 3 4 5 5 6 7 7 5 3 2 3 3 3 3 3 3 3 2 1 0 0 0 0 0 0 0 1 2 2 1 0 0

GEFSGL_con_prob3kmehi_246.txt.gz
EHI
52 53 58 64 66 65 62 60 58 53 46 42 41 42 44 42 36 32 29 26 23 19 16 15 16 14 11 9 7 6 8 10 9 11 12 10 6 3 3 3 3 3 3
59 60 63 67 70 67 64 62 60 55 49 45 43 43 44 44 41 36 32 30 28 24 20 18 17 16 15 13 9 6 6 8 8 11 13 11 6 4 3 3 3 3 3
69 70 72 75 75 71 68 67 63 57 51 47 45 44 44 45 45 41 37 35 32 29 25 22 20 20 20 18 14 9 6 5 7 10 12 11 6 3 3 3 3 3 3
75 77 80 81 77 73 70 68 65 57 49 46 45 43 42 44 45 43 41 37 34 32 30 26 21 19 19 18 16 13 8 6 7 11 13 11 6 3 3 3 3 3 3
78 79 82 81 77 72 70 67 64 58 50 46 44 42 39 38 38 38 39 38 37 35 32 27 20 16 14 12 12 11 10 8 9 12 13 11 8 5 3 2 2 3 3
77 78 80 79 75 73 70 67 65 62 56 51 47 44 40 33 26 26 30 34 38 37 33 27 20 14 11 8 7 6 6 6 7 9 10 10 10 8 5 2 1 2 3
75 77 78 76 73 72 71 68 66 64 62 59 54 50 44 31 19 15 18 25 32 34 31 28 22 16 13 12 9 7 5 4 4 5 6 7 9 10 8 5 3 3 4
72 72 72 69 67 68 68 65 63 62 63 62 58 53 45 31 17 9 9 17 24 25 25 26 25 20 15 13 13 12 9 6 4 4 4 5 6 7 7 6 5 5 5
64 64 63 61 61 63 63 62 61 59 58 57 54 48 40 28 15 6 6 12 17 17 18 21 22 21 15 11 12 13 12 9 6 4 4 3 3 2 3 4 5 5 3
56 56 56 56 55 57 59 59 58 57 53 49 46 42 37 27 14 4 4 10 14 15 15 15 15 15 11 6 7 11 12 10 8 6 4 4 3 2 1 2 3 3 2
50 49 50 50 48 50 53 56 56 54 49 45 43 40 37 29 15 4 2 7 11 13 14 13 11 7 4 2 3 7 8 8 8 7 5 4 4 3 3 4 4 4 4
45 44 44 43 40 40 46 51 54 52 45 41 39 36 35 30 17 5 1 3 6 10 13 11 7 3 0 0 1 2 2 3 4 5 3 2 2 3 5 7 8 7 6
42 40 38 36 32 32 37 43 47 46 40 35 33 31 31 28 19 8 1 0 2 5 8 5 2 1 0 0 0 0 0 0 1 1 1 0 1 3 5 7 9 9 8
39 37 35 31 28 28 32 34 36 36 34 32 31 30 29 27 22 12 4 2 1 2 3 3 1 1 0 1 1 1 0 0 0 0 0 0 1 2 3 5 7 8 8
35 35 32 27 25 27 28 26 24 23 23 24 27 28 26 23 20 13 7 4 3 2 3 4 4 3 2 2 3 2 0 0 0 0 1 1 1 1 1 3 4 6 6
32 33 30 24 23 25 25 21 15 12 10 11 14 18 18 15 12 8 5 4 3 1 2 5 5 5 4 4 4 2 0 0 0 0 1 2 2 2 1 1 3 4 4
29 30 27 24 23 24 25 23 16 10 6 4 4 6 7 6 4 2 1 1 1 0 1 3 5 6 6 5 4 2 1 1 1 1 2 3 4 4 2 2 2 3 4
27 27 26 25 23 24 25 25 21 16 11 7 4 2 2 1 0 0 0 0 1 1 2 3 4 5 6 6 6 5 4 3 3 2 3 3 4 4 3 3 2 2 2
24 24 23 23 22 21 22 22 21 17 13 10 7 4 2 0 0 0 0 1 2 3 3 3 3 4 6 6 6 6 6 5 4 4 3 3 3 3 3 2 1 1 1
18 17 16 17 17 17 17 18 18 16 13 11 9 6 4 3 2 1 1 3 5 4 4 4 4 5 6 6 7 7 8 7 6 5 4 3 1 1 1 1 0 0 0
11 10 9 10 11 12 12 14 16 16 14 13 10 6 4 5 6 6 6 7 6 6 6 5 5 5 6 7 7 8 8 7 6 5 4 3 1 1 0 0 0 0 0
7 7 7 7 8 9 9 11 12 13 13 13 10 6 4 6 10 11 12 10 8 8 7 7 5 6 7 7 7 7 6 5 4 4 3 3 3 2 1 0 0 0 0
6 6 7 8 8 8 8 9 10 10 11 10 9 7 6 7 9 11 12 12 10 9 9 8 6 6 6 6 6 5 4 3 3 3 4 4 3 3 2 1 0 0 0
6 7 8 9 9 8 8 8 9 9 9 8 7 7 6 6 6 7 9 11 11 10 10 10 8 7 5 5 5 4 3 3 3 4 5 5 4 3 2 1 0 0 0
6 7 8 9 9 9 9 8 7 7 7 5 5 4 4 4 4 5 6 8 9 9 10 11 9 7 4 3 3 3 3 2 2 3 4 4 3 3 2 1 0 0 0
6 7 8 9 10 10 10 8 6 5 5 4 4 3 3 3 3 4 5 5 6 9 10 11 10 6 3 2 2 3 3 1 1 1 2 3 3 2 1 0 0 0 0

GEFSGL_con_prob3kmehi_252.txt.gz
EHI
29 26 22 19 17 18 19 19 17 15 15 17 21 21 18 17 16 15 12 11 10 10 10 9 8 6 6 6 5 4 3 1 1 1 1 1 1 0 0 0 0 0 0
33 30 26 22 21 22 23 22 20 18 19 21 23 22 20 19 18 17 15 12 11 11 10 9 7 5 5 6 6 5 3 2 1 1 1 0 0 0 0 0 0 0 0
39 37 32 28 25 25 26 27 26 25 26 27 27 25 22 20 18 18 16 14 12 10 9 8 6 5 4 5 5 4 3 2 1 0 0 0 0 0 0 0 0 0 0
42 41 37 34 31 30 31 31 31 32 32 31 28 25 22 19 16 15 16 14 11 8 6 5 4 3 3 4 4 3 2 1 1 0 0 0 0 0 0 0 0 0 0
43 44 43 40 40 38 35 33 32 33 33 29 26 23 21 18 14 13 12 11 9 7 5 3 2 2 3 4 4 3 2 1 1 0 0 0 0 0 0 0 0 0 0
47 47 44 43 44 43 39 33 31 30 29 26 23 22 21 18 14 10 8 7 7 7 5 3 2 3 4 5 4 3 2 2 1 1 1 1 1 1 1 0 0 0 0
47 45 42 42 44 45 41 34 30 28 26 24 22 20 19 17 11 8 7 6 6 7 6 4 4 4 3 3 4 3 2 1 1 1 1 2 2 2 2 1 0 0 0
41 40 40 42 43 44 41 34 28 26 24 23 21 19 16 12 8 6 6 6 6 6 5 4 4 4 3 2 2 2 2 2 1 0 1 2 2 2 2 1 0 0 0
38 37 38 41 41 41 38 31 26 24 23 23 23 20 16 11 7 4 4 4 5 5 4 3 3 3 3 1 1 1 1 2 1 0 0 1 1 1 1 1 0 0 0
34 34 36 38 37 36 32 28 25 24 23 24 24 22 19 16 10 3 1 3 4 5 3 1 1 1 2 2 1 0 0 1 1 0 0 0 0 0 0 0 0 0 0
27 29 31 32 32 30 27 25 25 25 25 24 23 22 21 19 12 4 1 2 4 5 3 1 0 0 1 1 1 0 0 0 0 0 0 0 0 0 0 0 0 0 0
23 23 24 24 24 24 23 23 25 27 26 23 21 22 21 18 12 5 1 1 3 4 2 0 0 0 0 0 0 0 0 0 0 0 0 0 0 0 0 0 0 0 0
19 18 17 18 19 20 20 22 24 26 24 22 21 21 19 15 12 7 2 0 1 2 1 0 0 0 0 0 0 0 0 0 0 0 0 0 0 0 0 0 0 0 0
15 15 14 16 17 17 18 20 22 23 23 22 21 20 18 14 12 10 5 1 0 0 0 0 0 0 0 0 0 0 0 0 0 0 0 0 0 0 0 0 0 0 0
13 13 13 13 14 14 16 17 18 18 18 18 19 18 16 14 11 9 6 3 1 0 0 0 0 0 0 0 0 0 0 0 0 0 0 0 0 0 0 0 0 0 0
11 12 12 11 11 13 14 13 12 10 8 9 12 13 11 10 8 5 3 2 1 0 0 0 0 1 1 0 0 0 0 0 0 0 0 0 0 0 0 0 0 0 0
11 11 10 9 9 10 11 10 8 5 3 2 4 4 4 4 3 1 0 1 1 0 0 1 1 2 2 1 1 0 0 0 0 0 0 0 0 0 0 0 0 0 0
10 9 7 7 7 7 7 7 6 5 3 2 1 0 0 1 0 0 0 1 1 1 1 2 3 3 3 3 2 1 1 0 0 0 0 0 0 0 0 0 0 0 0
6 5 5 4 4 5 5 5 5 4 2 2 2 1 0 0 0 0 0 1 2 2 2 3 3 3 3 3 3 3 2 1 0 0 0 0 0 0 0 0 0 0 0
4 4 4 4 4 4 5 5 4 3 1 1 2 1 0 0 0 0 1 1 2 2 2 3 3 3 3 3 3 3 3 2 1 1 0 0 0 0 0 0 0 0 0
4 5 5 6 6 6 6 6 5 4 2 1 1 1 0 0 0 1 1 1 1 1 2 3 3 3 3 3 3 3 3 3 3 2 1 1 1 0 0 0 0 0 0
5 5 6 6 6 6 6 6 5 4 2 1 0 0 0 0 0 1 1 2 2 1 1 2 3 3 3 3 3 4 4 3 3 3 3 2 2 1 0 0 0 0 0
6 6 6 6 6 5 5 5 4 3 3 1 0 0 0 0 0 0 1 2 3 1 0 1 1 2 3 3 4 4 4 4 3 3 3 3 3 2 1 1 0 0 0
6 6 6 6 5 4 4 4 3 3 3 2 0 0 0 0 0 0 1 2 3 2 1 0 0 1 1 2 3 4 4 3 3 3 3 3 3 2 2 2 1 0 0
4 5 5 4 4 3 3 3 3 3 2 1 0 0 0 0 0 0 0 1 2 3 2 1 1 0 0 1 2 3 3 3 2 3 3 3 3 2 1 2 2 1 1
3 5 5 4 3 3 3 3 3 2 1 0 0 0 0 0 0 0 0 0 1 3 3 2 2 1 0 0 1 3 3 2 1 2 3 3 3 2 1 1 2 2 2